India Forums Logo

Hum ne li hai... Shapath

India Forums > Forum Index > Hum ne li hai... Shapath
Hum ne li hai... Shapath is a story of tough cops against the flawed system with thrilling and contemporary police cases weaved in.
<< | 1 | 2 | 3 | 4 | 5 | 6 | 7 | 8 | 9 | 10 | 11 | 12 | 13 | 14 | ... >>
TIDTopic SubjectStart DateLast Entry
2871850Shikha3/12/2012 4:36:34 AM3/12/2012 10:29:51 PM
2874322Abhi loves Shikha3/12/2012 11:05:06 AM3/13/2012 1:29:53 AM
2883411Shikha's Perfect Partner3/13/2012 1:43:44 AM3/13/2012 3:35:00 AM
2883418Perfect Jodi3/13/2012 1:45:11 AM3/13/2012 5:29:20 AM
2883421Perfect Jodi3/13/2012 1:46:30 AM3/13/2012 1:46:30 AM
2883608What...? Maine khatre mein dal diya...!!3/13/2012 3:46:50 AM3/15/2012 9:37:55 PM
288364603/12/2012 WU: Santu Caught3/13/2012 4:00:28 AM3/13/2012 1:00:25 PM
2883702*~HNLHS Promotional Sigg Contest-Winners~*3/13/2012 4:19:20 AM3/22/2012 11:23:23 PM
2883845Piyush aka insp. Abhigyan's birthday today!3/13/2012 6:15:47 AM3/14/2012 10:00:14 AM
2884454Gautam's love and Abhi's athelic demo3/13/2012 11:14:29 AM3/15/2012 1:27:54 PM
2884493who is in d precap??3/13/2012 11:33:24 AM3/15/2012 12:00:49 PM
2885071Where Is ACP and Astha?3/13/2012 10:41:44 PM3/15/2012 5:11:07 AM
2885518Find Shikha3/14/2012 6:22:15 AM3/16/2012 5:44:32 AM
288557203/13/2012 WU: Santu Killed3/14/2012 7:14:25 AM3/14/2012 9:29:48 AM
2885938spoiler3/14/2012 9:59:24 AM3/15/2012 2:57:58 AM
2886089Recap Narrator!3/14/2012 10:59:28 AM3/15/2012 1:59:29 AM
2886121**||~HNLHS:WU:14-03-12~||**3/14/2012 11:14:33 AM3/14/2012 12:33:02 PM
2886126ACP ko yaad kiya ACP haazir..3/14/2012 11:15:30 AM3/17/2012 4:11:47 AM
2886969shikha's coment...me cvs ka ishara3/15/2012 3:32:59 AM3/19/2012 4:42:49 AM
2887804Shikha may be saved tomorrow...3/15/2012 11:13:21 AM3/16/2012 6:17:04 AM
2887808**||~HNLHS:WU:15-03-12~||**3/15/2012 11:14:44 AM3/16/2012 10:45:14 AM
2887810Gumsum Gumsum Sa Gautam3/15/2012 11:15:03 AM3/15/2012 12:42:54 PM
2889543Yeh Kya Hua???3/16/2012 11:11:19 AM3/17/2012 4:27:24 AM
2889549Shikha the Chindichor! ROFL3/16/2012 11:14:07 AM3/18/2012 1:31:37 AM
2889787**||~HNLHS:WU:16-03-12~||**3/16/2012 1:00:50 PM3/16/2012 6:16:09 PM
2889789Hum Ne Li Hai Shapath: Is Shikha really dead?3/16/2012 1:03:38 PM3/20/2012 10:29:09 PM
2890874Mumma's Day and roona dhoona!3/17/2012 11:10:45 AM3/18/2012 5:13:19 AM
2890880Beautiful Emotions...3/17/2012 11:16:10 AM3/17/2012 11:36:27 AM
289099903/17/12 WU: Crying over Shikha3/17/2012 1:20:50 PM3/18/2012 12:22:55 AM
2891069COTW#7:Guess The Brand N Winners-Closed3/17/2012 3:42:08 PM3/20/2012 3:55:07 AM
2891168*~Shapathian Of The Week#6~*-Closed3/17/2012 9:40:50 PM3/20/2012 3:56:20 AM
2891860Lagta hai ye ACP bhi corrupt hai!3/18/2012 11:10:42 AM3/19/2012 9:31:27 AM
2891861Shikha Alive... :)3/18/2012 11:12:22 AM3/20/2012 2:41:31 AM
2891920**||~HNLHS:WU:18-03-12~||**3/18/2012 12:53:39 PM3/18/2012 5:40:03 PM
2892705*~GOTW:Kick Or Kiss~*3/19/2012 7:24:02 AM3/24/2012 11:06:14 AM
2892990Shikha's Perfect Partner3/19/2012 9:45:07 AM3/21/2012 6:16:50 AM
2893200Mind Blowing Episode...3/19/2012 11:12:59 AM3/19/2012 11:51:43 AM
2893201Recognize Him?3/19/2012 11:13:00 AM3/19/2012 2:25:00 PM
2893204Hai re manju Gautam!3/19/2012 11:13:31 AM3/19/2012 1:30:44 PM
2893762is arnav ever gonna tell khushi why he married her3/19/2012 10:19:06 PM3/20/2012 10:36:15 PM
2894098Birthday Pics Of Piyush3/20/2012 4:05:09 AM3/23/2012 2:31:32 PM
289429919/03/2012 WU: Gautam and Abhi Fight3/20/2012 5:50:47 AM3/20/2012 7:36:08 AM
2894411Who is it???3/20/2012 7:27:54 AM3/20/2012 10:38:40 AM
2894924How Many Times Yaar3/20/2012 11:42:43 AM3/21/2012 1:21:16 AM
2894946dono cops ne li hai pyaar ki shapat..3/20/2012 11:49:51 AM3/22/2012 6:56:15 PM
289607120/03/2012 WU: Chori Chori Madat3/21/2012 5:43:44 AM3/21/2012 11:15:19 AM
2897026**||~HNLHS:WU:21-03-12~||**3/21/2012 12:53:10 PM3/22/2012 5:53:50 AM
2897515Who is kidnapper?3/21/2012 11:59:05 PM3/24/2012 8:28:48 AM
2897966spoiler for today 22nd march3/22/2012 6:15:38 AM3/23/2012 5:49:41 AM
2898184Gautam3/22/2012 8:45:41 AM3/23/2012 8:04:53 AM
2898553Are are... Shikha confessed3/22/2012 11:12:27 AM3/22/2012 11:55:56 AM
2899005shikha said I LOVE U TO gautam <33/22/2012 4:28:08 PM3/25/2012 2:15:35 PM
2899342**||~HNLS:WU:22-03-12~||**3/23/2012 3:25:56 AM3/23/2012 9:08:42 AM
2900121Almost thr n still not!3/23/2012 11:11:59 AM3/24/2012 5:12:54 AM
2900242Sanjeet is The main leader ...3/23/2012 12:29:21 PM3/26/2012 5:54:59 AM
2900303**||~HNLS:WU:23-03-12~||**3/23/2012 1:33:47 PM3/23/2012 6:41:11 PM
2900886Who is the leader of the kidnappers?3/24/2012 5:28:19 AM3/24/2012 6:54:23 AM
2900963how long this case3/24/2012 6:32:23 AM3/25/2012 1:19:04 AM
2900967Some officers are missing3/24/2012 6:34:24 AM3/25/2012 12:43:45 PM
2901299Oye Balle Balle3/24/2012 11:13:49 AM3/24/2012 1:19:16 PM
2901416**||~HNLS:WU:24-03-12~||**3/24/2012 12:49:32 PM3/24/2012 1:39:55 PM
2901417HNLS:Sanjeet is the real terrorist3/24/2012 12:52:34 PM3/25/2012 9:06:52 PM
2901543COTW#8:Word Game N Winners3/24/2012 3:02:41 PM3/27/2012 10:13:32 AM
2901728GOTW *The next movie*3/24/2012 10:19:59 PM4/2/2012 3:04:00 AM
2901874*~Shapathian Of The Week#7~*3/25/2012 2:17:36 AM4/1/2012 1:48:46 AM
2902386What The Hell Happened3/25/2012 11:27:33 AM3/26/2012 5:48:03 AM
290244625/03/2012 WU: Shikha Dead?3/25/2012 12:34:04 PM3/26/2012 10:36:30 AM
2902519shikha dead again?3/25/2012 2:50:35 PM3/31/2012 4:14:39 PM
2902772Kya Gautam or Shikha ki shaadi hogi??3/26/2012 1:32:41 AM3/26/2012 5:45:08 AM
2903122April GOTW/DOTW Sign-up Sheet3/26/2012 5:46:56 AM4/1/2012 9:27:32 AM
2903709*Sigh*3/26/2012 11:17:36 AM3/26/2012 11:30:00 AM
2903714Blame Game and viewers emotions3/26/2012 11:19:27 AM3/27/2012 6:45:17 AM
290376526/03/2012: Shikha in Coma, Not Dead3/26/2012 11:42:16 AM3/27/2012 4:14:33 AM
2903805spoilers for 27th march3/26/2012 12:02:28 PM3/26/2012 6:32:09 PM
2903816Bhai ;P3/26/2012 12:09:44 PM3/26/2012 1:17:28 PM
<< | 1 | 2 | 3 | 4 | 5 | 6 | 7 | 8 | 9 | 10 | 11 | 12 | 13 | 14 | ... >>